| time (UTC) | temp F | wind direction | speed MPH | gust MPH | rain 1hr in | rain 24hr in | rain mn in | humidity % | barometer mb |
| 20260504081509 | 37 | 244 | 24.0 | 41.0 | 0.08 | 0.87 | 0.26 | 93 | 982.0 |
| 20260504044533 | 39 | 305 | 6.0 | 14.0 | 0.02 | 0.65 | 0.05 | 95 | 975.6 |
| 20260504043025 | 39 | 284 | 7.0 | 11.0 | 0.02 | 0.65 | 0.04 | 95 | 975.6 |
| 20260504041523 | 39 | 270 | 5.0 | 7.0 | 0.02 | 0.64 | 0.03 | 95 | 974.8 |
| 20260504040021 | 39 | 336 | 2.0 | 6.0 | 0.02 | 0.63 | 0.02 | 94 | 974.6 |
| 20260504034520 | 39 | 334 | 4.0 | 10.0 | 0.04 | 0.63 | 0.02 | 94 | 974.6 |
| 20260504033018 | 39 | 74 | 7.0 | 12.0 | 0.03 | 0.62 | 0.02 | 94 | 974.8 |
| 20260504031515 | 39 | 63 | 8.0 | 18.0 | 0.03 | 0.61 | 0.01 | 94 | 975.2 |
| 20260504030011 | 39 | 113 | 7.0 | 17.0 | 0.02 | 0.61 | 0.61 | 94 | 975.6 |
| 20260504024510 | 39 | 103 | 6.0 | 13.0 | 0.01 | 0.59 | 0.59 | 94 | 976.5 |
| 20260504023005 | 40 | 75 | 9.0 | 19.0 | 0.01 | 0.59 | 0.59 | 94 | 976.9 |
| 20260504021502 | 40 | 62 | 5.0 | 17.0 | 0.01 | 0.57 | 0.57 | 94 | 977.9 |
| 20260504020059 | 41 | 82 | 7.0 | 12.0 | 0.01 | 0.57 | 0.57 | 94 | 978.6 |
| 20260504014556 | 41 | 114 | 7.0 | 15.0 | 0.02 | 0.57 | 0.57 | 94 | 979.3 |
| 20260504013054 | 42 | 114 | 9.0 | 18.0 | 0.02 | 0.57 | 0.57 | 95 | 979.8 |
| 20260504011551 | 41 | 92 | 13.0 | 26.0 | 0.02 | 0.56 | 0.56 | 95 | 980.7 |
| 20260504010146 | 41 | 119 | 11.0 | 28.0 | 0.03 | 0.56 | 0.56 | 95 | 981.3 |
| 20260504004543 | 41 | 88 | 8.0 | 23.0 | 0.04 | 0.56 | 0.56 | 95 | 981.9 |
| 20260504003043 | 41 | 92 | 12.0 | 26.0 | 0.04 | 0.56 | 0.56 | 95 | 982.9 |
| 20260504001538 | 41 | 80 | 14.0 | 23.0 | 0.06 | 0.56 | 0.56 | 94 | 983.4 |
| 20260504000042 | 40 | 99 | 15.0 | 28.0 | 0.05 | 0.54 | 0.54 | 94 | 984.3 |
| 20260503234534 | 40 | 90 | 14.0 | 28.0 | 0.12 | 0.53 | 0.53 | 94 | 984.6 |
| 20260503233037 | 39 | 57 | 17.0 | 32.0 | 0.16 | 0.52 | 0.52 | 94 | 985.8 |
| 20260503231528 | 39 | 52 | 15.0 | 31.0 | 0.18 | 0.50 | 0.50 | 94 | 986.5 |
| 20260503230026 | 39 | 200 | 7.0 | 31.0 | 0.18 | 0.48 | 0.48 | 94 | 987.6 |
| 20260503224528 | 38 | 80 | 15.0 | 25.0 | 0.14 | 0.41 | 0.41 | 94 | 988.6 |
| 20260503223018 | 39 | 76 | 14.0 | 25.0 | 0.11 | 0.36 | 0.36 | 94 | 989.3 |
| 20260503221515 | 38 | 84 | 13.0 | 26.0 | 0.13 | 0.32 | 0.32 | 93 | 990.8 |
| 20260503220018 | 38 | 95 | 13.0 | 32.0 | 0.16 | 0.30 | 0.30 | 93 | 991.7 |
| 20260503214506 | 39 | 122 | 11.0 | 22.0 | 0.17 | 0.27 | 0.27 | 93 | 992.8 |
| 20260503213004 | 39 | 72 | 8.0 | 17.0 | 0.17 | 0.25 | 0.25 | 93 | 993.5 |
| 20260503211503 | 40 | 104 | 10.0 | 19.0 | 0.12 | 0.19 | 0.19 | 92 | 994.2 |
| 20260503210100 | 40 | 65 | 9.0 | 25.0 | 0.08 | 0.14 | 0.14 | 93 | 994.3 |
| 20260503204558 | 41 | 90 | 6.0 | 19.0 | 0.05 | 0.09 | 0.09 | 92 | 995.1 |
| 20260503203101 | 42 | 78 | 8.0 | 21.0 | 0.04 | 0.09 | 0.09 | 92 | 995.0 |
| 20260503201554 | 42 | 151 | 6.0 | 21.0 | 0.04 | 0.07 | 0.07 | 92 | 995.7 |
| 20260503200051 | 42 | 79 | 7.0 | 17.0 | 0.05 | 0.06 | 0.06 | 91 | 996.5 |
| 20260503194553 | 42 | 91 | 9.0 | 23.0 | 0.03 | 0.05 | 0.05 | 90 | 997.1 |
| 20260503193045 | 43 | 61 | 10.0 | 29.0 | 0.03 | 0.05 | 0.05 | 89 | 997.7 |
| 20260503191542 | 43 | 88 | 9.0 | 21.0 | 0.02 | 0.03 | 0.03 | 88 | 999.2 |
| 20260503190045 | 43 | 86 | 12.0 | 22.0 | 0.00 | 0.02 | 0.02 | 87 | 999.0 |
| 20260503184557 | 43 | 85 | 11.0 | 22.0 | 0.02 | 0.02 | 0.02 | 86 | 999.6 |
| 20260503183036 | 43 | 66 | 9.0 | 17.0 | 0.02 | 0.02 | 0.02 | 88 | 1000.7 |
| 20260503181534 | 43 | 67 | 8.0 | 15.0 | 0.02 | 0.02 | 0.02 | 87 | 1001.4 |
| 20260503180036 | 43 | 91 | 10.0 | 18.0 | 0.02 | 0.02 | 0.02 | 84 | 1002.2 |
| 20260503174532 | 45 | 64 | 8.0 | 13.0 | 0.00 | 0.00 | 0.00 | 77 | 1004.3 |
| 20260503173033 | 45 | 70 | 9.0 | 18.0 | 0.00 | 0.00 | 0.00 | 75 | 1005.4 |
| 20260503171522 | 45 | 118 | 3.0 | 10.0 | 0.00 | 0.00 | 0.00 | 80 | 1006.2 |